KF6ILA Weather Reports


time (UTC)temp
F
wind
direction
speed
knots
gust
knots
rain 1hr
in
rain 24hr
in
rain mn
in
humidity
%
barometer
mb
20260901201158 80 250 9.6 17.4 0.00 0.00 0.00 35 1017.8
20260901200701 79 249 9.6 18.2 0.00 0.00 0.00 34 1017.7
20260901200204 80 264 12.2 20.0 0.00 0.00 0.00 34 1017.6
20260901194713 79 253 9.6 18.2 0.00 0.00 0.00 35 1017.7
20260901194216 78 240 8.7 22.6 0.00 0.00 0.00 35 1017.0
20260901193719 78 256 12.2 22.6 0.00 0.00 0.00 33 1017.0
20260901193222 79 271 10.4 17.4 0.00 0.00 0.00 33 1016.9
20260901192228 79 235 9.6 18.2 0.00 0.00 0.00 32 1017.1
20260901191234 78 234 9.6 18.2 0.00 0.00 0.00 32 1017.2
20260901190737 77 238 9.6 18.2 0.00 0.00 0.00 31 1017.1
20260901190240 77 269 11.3 19.1 0.00 0.00 0.00 32 1017.2
20260901184749 77 261 10.4 19.1 0.00 0.00 0.00 31 1017.4
20260901184252 77 264 10.4 18.2 0.00 0.00 0.00 29 1017.5
20260901183755 77 227 12.2 19.1 0.00 0.00 0.00 30 1017.4
20260901183258 77 238 7.8 19.1 0.00 0.00 0.00 32 1017.4
20260901182801 77 232 9.6 21.7 0.00 0.00 0.00 29 1017.5
20260901182305 76 222 11.3 21.7 0.00 0.00 0.00 30 1017.6
20260901181310 76 237 11.3 18.2 0.00 0.00 0.00 30 1017.5
20260901180813 76 254 11.3 18.2 0.00 0.00 0.00 28 1017.5
20260901180316 75 254 7.8 17.4 0.00 0.00 0.00 27 1017.6
20260901175819 75 269 9.6 20.0 0.00 0.00 0.00 25 1017.5
20260901175322 75 259 8.7 20.0 0.00 0.00 0.00 25 1017.5
20260901174328 75 274 7.8 18.2 0.00 0.00 0.00 24 1017.4
20260901173831 75 262 10.4 18.2 0.00 0.00 0.00 25 1017.4
20260901173334 74 235 9.6 16.5 0.00 0.00 0.00 24 1017.3
20260901172837 74 272 9.6 15.6 0.00 0.00 0.00 23 1017.4
20260901172340 74 264 6.1 18.2 0.00 0.00 0.00 23 1017.4
20260901171843 73 255 9.6 18.2 0.00 0.00 0.00 25 1017.3
20260901170849 73 262 10.4 19.1 0.00 3.00 0.00
20260901170352 0 266 7.8 18.2 0.00 0.00 0.00 24 1017.2
20260901165855 72 272 10.4 18.2 0.00 0.00 0.00 24 1017.3
20260901165358 72 259 14.8 18.2 0.00 0.00 0.00 23 1017.3
20260901164901 72 266 10.4 16.5 0.00 0.00 0.00 24 1017.1
20260901164404 72 258 9.6 16.5 0.00 0.00 0.00 24 1017.0
20260901163907 72 247 9.6 16.5 0.00 0.00 0.00 23 1017.0
20260901163410 71 245 9.6 16.5 0.00 0.00 0.00 23 1016.9
20260901162913 71 260 10.4 15.6 0.00 0.00 0.00 23 1017.0
20260901162416 71 253 8.7 16.5 0.00 0.00 0.00 23 1016.8
20260901161919 70 262 10.4 19.1 0.00 0.00 0.00 23 1016.8
20260901161422 70 264 12.2 19.1 0.00 0.00 0.00 23 1016.7
20260901160925 70 268 9.6 18.2 0.00 0.00 0.00 24 1016.6
20260901155931 70 273 10.4 18.2 0.00 0.00 0.00 24 1016.4
20260901155434 69 278 11.3 17.4 0.00 0.00 0.00 24 1016.4
20260901153943 69 277 10.4 17.4 0.00 0.00 0.00 24 1016.2
20260901153446 68 277 12.2 17.4 0.00 0.00 0.00 24 1016.2
20260901151955 68 273 11.3 18.2 0.00 0.00 0.00 24 1016.2
20260901151001 67 270 10.4 15.6 0.00 0.00 0.00 25 1016.3
20260901144516 66 279 9.6 16.5 0.00 0.00 0.00 25 1016.1
20260901144019 66 272 9.6 18.2 0.00 0.00 0.00 25 1016.0
20260901143522 66 267 12.2 18.2 0.00 0.00 0.00 25 1016.0
20260901141534 65 269 10.4 19.1 0.00 0.00 0.00 25 1015.8
20260901140043 65 272 12.2 20.0 0.00 0.00 0.00 25 1015.8
20260901135049 65 264 11.3 20.9 0.00 0.00 0.00 25 1015.7
20260901134552 65 262 12.2 20.9 0.00 0.00 0.00 25 1015.6
20260901134055 65 262 13.0 20.0 0.00 0.00 0.00 25 1015.7
20260901133558 65 257 12.2 19.1 0.00 0.00 0.00 26 1015.5
20260901133101 64 264 11.3 16.5 0.00 0.00 0.00 26 1015.5
20260901132604 64 261 11.3 17.4 0.00 0.00 0.00 26 1015.4
20260901131610 64 254 10.4 16.5 0.00 0.00 0.00 25 1015.4
20260901131113 64 263 10.4 16.5 0.00 0.00 0.00 25 1015.5
20260901130119 64 261 9.6 14.8 0.00 0.00 0.00 25 1015.5
20260901125622 64 258 9.6 16.5 0.00 0.00 0.00 26 1015.5
20260901124628 64 256 10.4 16.5 0.00 0.00 0.00 26 1015.4
20260901124131 64 261 10.4 16.5 0.00 0.00 0.00 26 1015.4
20260901123137 64 256 12.2 16.5 0.00 0.00 0.00 27 1015.3
20260901122640 63 253 13.0 16.5 0.00 0.00 0.00 27 1015.3
20260901122143 63 255 11.3 15.6 0.00 0.00 0.00 27 1015.3
20260901121648 64 256 11.3 16.5 0.00 0.00 0.00 27 1015.3
20260901121149 64 255 12.2 16.5 0.00 0.00 0.00 27 1015.3
20260901120652 63 257 11.3 15.6 0.00 0.00 0.00 28 1015.2
20260901120155 64 254 11.3 15.6 0.00 0.00 0.00 28 1015.1
20260901115201 64 258 11.3 15.6 0.00 0.00 0.00 28 1015.2
20260901114207 64 259 10.4 16.5 0.00 0.00 0.00 28 1015.1
20260901113710 64 260 13.0 16.5 0.00 0.00 0.00 28 1015.0
20260901112716 64 260 12.2 16.5 0.00 0.00 0.00 28 1015.0
20260901111722 64 253 11.3 15.6 0.00 0.00 0.00 28 1015.0
20260901111225 64 256 11.3 15.6 0.00 0.00 0.00 28 1015.0
20260901110728 64 258 12.2 16.5 0.00 0.00 0.00 28 1015.0
20260901110231 64 256 12.2 17.4 0.00 0.00 0.00 28 1015.0
20260901105734 64 256 13.0 17.4 0.00 0.00 0.00 28 1015.0
20260901104243 64 257 9.6 13.9 0.00 0.00 0.00 30 1015.1
20260901103746 64 257 10.4 15.6 0.00 0.00 0.00 30 1015.2
20260901103249 64 257 10.4 15.6 0.00 0.00 0.00 31 1015.2
20260901102752 64 259 10.4 14.8 0.00 0.00 0.00 31 1015.2
20260901102255 63 255 10.4 14.8 0.00 0.00 0.00 32 1015.3
20260901101301 63 255 10.4 14.8 0.00 0.00 0.00 34 1015.2
20260901100804 63 249 9.6 13.9 0.00 0.00 0.00 36 1015.2
20260901100307 63 253 9.6 13.9 0.00 0.00 0.00 36 1015.3
20260901095810 63 251 9.6 13.9 0.00 0.00 0.00 38 1015.3
20260901095313 63 254 9.6 13.9 0.00 0.00 0.00 39 1015.3
20260901094319 63 253 7.8 12.2 0.00 0.00 0.00 40 1015.4
20260901093325 63 255 7.8 12.2 0.00 0.00 0.00 39 1015.5
20260901092331 63 255 7.8 12.2 0.00 0.00 0.00 40 1015.4
20260901091834 63 249 7.8 12.2 0.00 0.00 0.00 41 1015.4
20260901091337 64 250 8.7 13.0 0.00 0.00 0.00 40 1015.2
20260901090840 64 254 8.7 13.0 0.00 0.00 0.00 40 1016.2
20260901090343 64 255 9.6 13.0 0.00 0.00 0.00 41 1016.1
20260901085846 64 259 8.7 13.0 0.00 0.00 0.00 42 1016.1
20260901085349 64 258 9.6 13.0 0.00 0.00 0.00 43 1016.2
20260901084852 64 261 8.7 13.0 0.00 0.00 0.00 45 1016.2
20260901084355 64 265 9.6 13.0 0.00 0.00 0.00 45 1016.2
20260901083858 63 266 8.7 12.2 0.00 0.00 0.00 46 1016.3
20260901082904 63 265 7.0 12.2 0.00 0.00 0.00 49 1016.3
20260901082407 63 268 7.0 12.2 0.00 0.00 0.00 49 1016.3
20260901081413 62 261 5.2 9.6 0.00 0.00 0.00 50 1016.3
20260901080916 63 263 6.1 10.4 0.00 0.00 0.00 50 1016.3
20260901080419 63 260 5.2 10.4 0.00 0.00 0.00 50 1016.4
20260901075922 63 263 5.2 12.2 0.00 0.00 0.00 50 1016.4
20260901075425 63 269 6.1 12.2 0.00 0.00 0.00 50 1016.4
20260901074928 63 265 7.8 12.2 0.00 0.00 0.00 51 1016.3
20260901074431 63 265 7.8 12.2 0.00 0.00 0.00 51 1016.4
20260901073934 63 264 7.8 11.3 0.00 0.00 0.00 51 1016.4
20260901073437 63 255 7.8 12.2 0.00 0.00 0.00 50 1016.4
20260901072940 64 258 8.7 14.8 0.00 0.00 0.00 50 1016.3
20260901072443 64 260 8.7 14.8 0.00 0.00 0.00 50 1016.4
20260901071946 64 257 10.4 14.8 0.00 0.00 0.00 47 1016.2
20260901071449 65 262 9.6 14.8 0.00 0.00 0.00 44 1016.2
20260901070952 65 262 9.6 13.9 0.00 0.00 0.00 43 1016.2
20260901070455 65 265 10.4 13.9 0.00 0.00 0.00 42 1016.2
20260901065501 65 265 9.6 13.9 0.00 0.00 0.00 41 1016.3
20260901064507 65 255 8.7 13.0 0.00 0.00 0.00 41 1016.3
20260901064010 65 260 8.7 12.2 0.00 0.00 0.00 42 1016.4
20260901063513 65 258 7.8 11.3 0.00 0.00 0.00 41 1016.4
20260901062519 65 254 7.8 11.3 0.00 0.00 0.00 40 1016.5
20260901061525 65 251 7.8 12.2 0.00 0.00 0.00 36 1016.5
20260901061028 65 254 7.8 12.2 0.00 0.00 0.00 34 1016.5
20260901060531 66 259 7.8 11.3 0.00 0.00 0.00 31 1016.5
20260901060034 66 257 8.7 11.3 0.00 0.00 0.00 27 1016.6
20260901055040 66 253 7.8 12.2 0.00 0.00 0.00 26 1016.5
20260901054543 66 252 7.8 12.2 0.00 0.00 0.00 27 1016.4
20260901054046 65 254 8.7 11.3 0.00 0.00 0.00 28 1016.4
20260901052555 64 246 7.0 9.6 0.00 0.00 0.00 36 1016.4
20260901052058 64 242 7.0 10.4 0.00 0.00 0.00 40 1016.4
20260901051602 64 244 7.8 10.4 0.00 0.00 0.00 41 1016.4
20260901051104 64 241 7.8 10.4 0.00 0.00 0.00 43 1016.4
20260901050607 64 245 7.8 11.3 0.00 0.00 0.00 44 1016.3
20260901050110 64 240 8.7 11.3 0.00 0.00 0.00 44 1016.3
20260901045613 64 237 7.8 10.4 0.00 0.00 0.00 41 1016.3
20260901044619 65 238 7.8 11.3 0.00 0.00 0.00 37 1016.3
20260901044122 65 244 7.8 10.4 0.00 0.00 0.00 37 1016.2
20260901043625 65 245 7.8 11.3 0.00 0.00 0.00 36 1016.3
20260901042631 65 241 9.6 12.2 0.00 0.00 0.00 39 1016.3
20260901042134 65 245 8.7 12.2 0.00 0.00 0.00 41 1016.2
20260901041637 65 242 8.7 12.2 0.00 0.00 0.00 42 1016.2
20260901041140 65 241 8.7 12.2 0.00 0.00 0.00 42 1016.2
20260901040643 65 240 8.7 13.9 0.00 0.00 0.00 43 1016.0
20260901040146 65 240 9.6 13.9 0.00 0.00 0.00 44 1015.9
20260901035649 65 240 9.6 13.0 0.00 0.00 0.00 47 1015.8
20260901035152 64 242 9.6 13.0 0.00 0.00 0.00 50 1015.7
20260901034655 64 242 9.6 13.0 0.00 0.00 0.00 55 1015.7
20260901034158 63 237 10.4 13.0 0.00 0.00 0.00 61 1015.5
20260901033701 63 237 10.4 13.0 0.00 0.00 0.00 65 1015.4
20260901032707 63 235 9.6 13.0 0.00 0.00 0.00 68 1015.3
20260901031713 64 235 9.6 13.9 0.00 0.00 0.00 67 1015.1
20260901031216 64 240 9.6 13.9 0.00 0.00 0.00 66 1015.1
20260901030719 64 239 9.6 13.9 0.00 0.00 0.00 66 1015.1
20260901030222 64 245 10.4 14.8 0.00 0.00 0.00 66 1015.0
20260901025228 65 242 10.4 14.8 0.00 0.00 0.00 64 1015.1
20260901024731 65 242 11.3 16.5 0.00 0.00 0.00 64 1014.9
20260901023240 66 244 11.3 16.5 0.00 0.00 0.00 62 1014.7
20260901021749 67 258 10.4 16.5 0.00 0.00 0.00 60 1014.6
20260901021252 67 261 12.2 16.5 0.00 0.00 0.00 60 1014.4
20260901020258 68 254 12.2 15.6 0.00 0.00 0.00 57 1015.2
20260901015801 69 252 8.7 14.8 0.00 0.00 0.00 57 1015.1
20260901015305 69 262 9.6 14.8 0.00 0.00 0.00 56 1015.0
20260901014310 70 254 11.3 19.1 0.00 0.00 0.00 53 1015.0
20260901013316 71 260 10.4 17.4 0.00 0.00 0.00 51 1015.0
20260901012322 72 259 13.0 17.4 0.00 0.00 0.00 50 1015.1
20260901010831 73 262 8.7 16.5 0.00 0.00 0.00 50 1015.2
20260901010334 73 262 12.2 16.5 0.00 0.00 0.00 49 1015.1
20260901005340 74 258 11.3 16.5 0.00 0.00 0.00 49 1015.1
20260901003849 75 270 7.0 17.4 0.00 0.00 0.00 49 1015.3
20260901003352 75 254 8.7 19.1 0.00 0.00 0.00 49 1015.3
20260901002855 75 261 13.0 19.1 0.00 0.00 0.00 48 1015.3
20260901002358 76 268 11.3 19.1 0.00 0.00 0.00 48 1015.3
20260901001404 76 249 10.4 19.1 0.00 0.00 0.00 48 1015.4
20260901000907 76 280 11.3 18.2 0.00 0.00 0.00 48 1015.4
20260901000412 76 251 11.3 18.2 0.00 0.00 0.00 48 1015.6
20260831234919 77 264 12.2 19.1 0.00 0.00 0.00 46 1015.4
20260831234422 77 283 10.4 20.9 0.00 0.00 0.00 46 1015.6
20260831233428 78 278 11.3 22.6 0.00 0.00 0.00 46 1015.7
20260831232931 78 276 11.3 22.6 0.00 0.00 0.00 45 1015.4
20260831231937 78 269 10.4 19.1 0.00 0.00 0.00 45 1015.6
20260831230446 78 260 13.0 20.9 0.00 0.00 0.00 44 1015.7
20260831225949 79 275 11.3 18.2 0.00 0.00 0.00 44 1015.7
20260831224955 78 269 11.3 20.9 0.00 0.00 0.00 44 1015.7
20260831224458 79 267 11.3 18.2 0.00 0.00 0.00 44 1015.7
20260831224001 79 263 13.9 18.2 0.00 0.00 0.00 43 1015.8
20260831222510 80 271 10.4 19.1 0.00 0.00 0.00 43 1015.8
20260831221019 80 257 11.3 19.1 0.00 0.00 0.00 43 1015.8
20260831220522 80 287 10.4 20.0 0.00 0.00 0.00 43 1015.8
20260831215528 80 247 7.8 20.9 0.00 0.00 0.00 42 1015.8
20260831215031 80 257 8.7 20.9 0.00 0.00 0.00 41 1015.8
20260831214534 80 255 9.6 19.1 0.00 0.00 0.00 41 1015.7
20260831214037 81 267 13.0 20.0 0.00 0.00 0.00 40 1015.8
20260831213540 81 259 12.2 20.0 0.00 0.00 0.00 40 1015.9
20260831213043 81 251 10.4 18.2 0.00 0.00 0.00 39 1015.9
20260831212546 81 270 12.2 18.2 0.00 0.00 0.00 38 1016.1
20260831212049 81 260 11.3 17.4 0.00 0.00 0.00 37 1016.1
20260831210558 81 237 9.6 17.4 0.00 0.00 0.00 36 1016.4
20260831205604 81 256 9.6 19.1 0.00 0.00 0.00 35 1016.3
20260831204113 80 266 9.6 17.4 0.00 0.00 0.00 38 1016.4
20260831203616 81 225 12.2 17.4 0.00 0.00 0.00 37 1016.6
20260831202622 81 235 8.7 17.4 0.00 0.00 0.00 38 1016.6